M0NPQ Weather Reports


Display with metric or nautical units.
time (UTC)temp
F
wind
direction
speed
MPH
gust
MPH
rain 1hr
in
rain 24hr
in
rain mn
in
humidity
%
barometer
mb
20260510152703 54 40 1.0 4.0 0.00 0.00 0.00 59 1016.4
20260510151803 54 285 1.0 3.0 0.00 0.00 0.00 61 1016.2
20260510150904 55 274 1.0 4.0 0.00 0.00 0.00 58 1016.5
20260510150003 56 59 1.0 4.0 0.00 0.00 0.00 57 1016.5
20260510145404 56 78 1.0 3.0 0.00 0.00 0.00 59 1016.7
20260510144503 56 252 1.0 3.0 0.00 0.00 0.00 59 1016.8
20260510143603 55 229 1.0 6.0 0.00 0.00 0.00 59 1016.7
20260510142917 55 244 1.0 4.0 0.00 0.00 0.00 60 1017.0
20260510141803 56 254 1.0 3.0 0.00 0.00 0.00 60 1017.0
20260510140904 55 228 1.0 4.0 0.00 0.00 0.00 60 1017.0
20260510140003 54 266 1.0 4.0 0.00 0.00 0.00 61 1017.0
20260510135404 54 271 1.0 4.0 0.00 0.00 0.00 63 1017.1
20260510134503 54 248 1.0 4.0 0.00 0.00 0.00 62 1017.3
20260510133603 55 266 1.0 4.0 0.00 0.00 0.00 63 1017.3
20260510132703 55 86 1.0 3.0 0.00 0.00 0.00 63 1017.5
20260510131804 55 271 1.0 6.0 0.00 0.00 0.00 64 1017.2
20260510130903 54 262 1.0 4.0 0.00 0.00 0.00 66 1017.3
20260510130003 54 256 1.0 3.0 0.00 0.00 0.00 66 1017.4
20260510125403 54 254 1.0 4.0 0.00 0.00 0.00 68 1017.4
20260510124718 53 259 1.0 6.0 0.00 0.00 0.00 64 1017.3
20260510123603 54 208 1.0 3.0 0.00 0.00 0.00 65 1017.5
20260510122916 54 74 1.0 3.0 0.00 0.00 0.00 66 1017.6
20260510121804 54 245 1.0 4.0 0.00 0.00 0.00 66 1017.6
20260510120904 55 299 1.0 4.0 0.00 0.00 0.00 66 1017.8
20260510120004 54 277 1.0 4.0 0.00 0.00 0.00 66 1017.7
20260510115404 53 279 1.0 4.0 0.00 0.00 0.00 67 1018.1
20260510114719 53 274 1.0 3.0 0.00 0.00 0.00 68 1018.0
20260510113817 54 261 1.0 4.0 0.00 0.00 0.00 68 1017.9
20260510112704 54 248 1.0 6.0 0.00 0.00 0.00 68 1018.2
20260510111803 55 136 1.0 8.0 0.00 0.00 0.00 68 1018.3
20260510111119 56 197 1.0 8.0 0.00 0.00 0.00 65 1018.2
20260510110005 55 127 1.0 4.0 0.00 0.00 0.00 67 1018.1
20260510105404 54 103 1.0 3.0 0.00 0.00 0.00 69 1018.2
20260510104505 54 268 1.0 6.0 0.00 0.00 0.00 68 1018.3
20260510103603 54 254 1.0 6.0 0.00 0.00 0.00 68 1018.3
20260510102703 54 124 0.0 2.0 0.00 0.00 0.00 68 1018.1
20260510101803 54 197 1.0 3.0 0.00 0.00 0.00 69 1018.3
20260510100903 53 79 1.0 3.0 0.00 0.00 0.00 70 1018.4
20260510100003 53 81 1.0 3.0 0.00 0.00 0.00 70 1018.4
20260510095403 53 98 1.0 4.0 0.00 0.00 0.00 70 1018.3
20260510094503 53 245 1.0 4.0 0.00 0.00 0.00 71 1018.4
20260510093603 53 227 1.0 3.0 0.00 0.00 0.00 73 1018.5
20260510092703 53 117 1.0 3.0 0.00 0.00 0.00 72 1018.5
20260510091803 53 334 1.0 3.0 0.00 0.00 0.00 72 1018.4
20260510090903 53 123 1.0 3.0 0.00 0.00 0.00 71 1018.6
20260510090219 53 128 1.0 4.0 0.00 0.00 0.00 71 1018.6
20260510085404 53 206 1.0 4.0 0.00 0.00 0.00 71 1018.4
20260510084718 53 238 1.0 4.0 0.00 0.00 0.00 71 1018.5
20260510083603 53 279 1.0 4.0 0.00 0.00 0.00 70 1018.6
20260510082703 52 246 1.0 4.0 0.00 0.00 0.00 74 1018.8
20260510081803 52 250 1.0 3.0 0.00 0.00 0.00 74 1018.6
20260510080903 52 241 1.0 3.0 0.00 0.00 0.00 75 1018.8
20260510080217 53 289 1.0 3.0 0.00 0.00 0.00 75 1018.7
20260510075404 53 80 1.0 2.0 0.00 0.00 0.00 74 1018.5
20260510074503 53 128 1.0 3.0 0.00 0.00 0.00 73 1018.8
20260510073604 54 233 1.0 4.0 0.00 0.00 0.00 71 1018.8
20260510072703 54 281 1.0 4.0 0.00 0.00 0.00 72 1018.6
20260510071804 53 174 1.0 3.0 0.00 0.00 0.00 75 1018.5
20260510070904 52 254 1.0 3.0 0.00 0.00 0.00 78 1018.6
20260510070005 52 248 1.0 4.0 0.00 0.00 0.00 78 1018.6
20260510065403 52 263 1.0 4.0 0.00 0.00 0.00 78 1018.4
20260510064503 52 244 1.0 3.0 0.00 0.00 0.00 80 1018.4
20260510063603 52 234 1.0 3.0 0.00 0.00 0.00 80 1018.4
20260510062918 52 98 1.0 3.0 0.00 0.00 0.00 80 1018.2
20260510061803 52 287 1.0 3.0 0.00 0.00 0.00 81 1018.2
20260510060904 52 269 1.0 4.0 0.00 0.00 0.00 82 1017.9
20260510060218 52 220 1.0 3.0 0.00 0.00 0.00 82 1018.0
20260510055403 52 319 0.0 3.0 0.00 0.00 0.00 83 1017.7
20260510054504 52 255 1.0 3.0 0.00 0.00 0.00 83 1017.9
20260510053603 52 254 1.0 3.0 0.00 0.00 0.00 84 1017.9
20260510052705 52 149 1.0 4.0 0.00 0.00 0.00 84 1017.7
20260510051803 52 64 1.0 3.0 0.00 0.00 0.00 84 1017.7
20260510050903 52 209 0.0 3.0 0.00 0.00 0.00 84 1017.7
20260510050005 52 132 0.0 2.0 0.00 0.00 0.00 83 1017.7
20260510045403 51 97 0.0 2.0 0.00 0.00 0.00 83 1018.0
20260510044503 51 133 0.0 3.0 0.00 0.00 0.00 83 1017.9
20260510043604 51 79 0.0 2.0 0.00 0.00 0.00 83 1018.1
20260510042704 51 87 0.0 2.0 0.00 0.00 0.00 83 1018.0
20260510041805 51 34 0.0 2.0 0.00 0.00 0.00 82 1018.0
20260510040904 51 215 0.0 2.0 0.00 0.00 0.00 82 1018.1
20260510040003 51 95 0.0 2.0 0.00 0.00 0.00 82 1018.0
20260510035403 51 85 0.0 2.0 0.00 0.00 0.00 82 1018.0
20260510034504 51 154 0.0 3.0 0.00 0.00 0.00 82 1018.1
20260510033603 51 280 0.0 2.0 0.00 0.00 0.00 82 1018.2
20260510032703 51 101 0.0 2.0 0.00 0.00 0.00 82 1018.4
20260510031803 52 118 0.0 1.0 0.00 0.00 0.00 82 1018.5
20260510030903 51 66 0.0 2.0 0.00 0.00 0.00 81 1018.4
20260510030003 51 291 0.0 2.0 0.00 0.00 0.00 81 1018.6
20260510025404 52 250 0.0 2.0 0.00 0.00 0.00 82 1018.4
20260510024503 52 96 0.0 2.0 0.00 0.00 0.00 83 1018.6
20260510023603 52 84 0.0 3.0 0.00 0.00 0.00 84 1018.5
20260510022703 52 68 0.0 1.0 0.00 0.00 0.00 85 1018.4
20260510021803 52 283 0.0 1.0 0.00 0.00 0.00 86 1018.4
20260510020903 51 260 0.0 1.0 0.00 0.00 0.00 87 1018.2
20260510020005 51 96 0.0 1.0 0.00 0.00 0.00 88 1018.5
20260510015403 51 88 0.0 1.0 0.00 0.00 0.00 88 1018.4
20260510014503 51 80 0.0 1.0 0.00 0.00 0.00 88 1018.6
20260510013604 51 84 0.0 1.0 0.00 0.00 0.00 88 1018.5
20260510012704 51 347 0.0 1.0 0.00 0.00 0.00 88 1018.4
20260510011804 51 184 0.0 1.0 0.00 0.00 0.00 87 1018.2
20260510010904 51 86 0.0 1.0 0.00 0.00 0.00 87 1018.4
20260510010005 51 71 0.0 1.0 0.00 0.00 0.00 87 1018.5
20260510005403 51 28 0.0 2.0 0.00 0.00 0.00 87 1018.4
20260510004503 52 255 0.0 2.0 0.00 0.00 0.00 88 1018.5
20260510003604 52 0 0.0 0.0 0.00 0.00 0.00 88 1018.4
20260510002703 52 0 0.0 0.0 0.00 0.00 0.00 89 1018.6
20260510001806 52 257 0.0 1.0 0.00 0.00 0.00 89 1018.7
20260510000904 52 0 0.0 0.0 0.00 0.00 0.00 89 1018.8
20260510000003 52 87 0.0 1.0 0.00 0.00 0.00 89 1018.8
20260509235617 52 89 0.0 1.0 0.00 0.00 0.00 89 1018.9
20260509234719 52 94 0.0 1.0 0.00 0.00 0.00 89 1019.1
20260509233603 53 72 0.0 1.0 0.00 0.00 0.00 89 1019.0
20260509232703 53 72 0.0 1.0 0.00 0.00 0.00 90 1018.9
20260509231803 53 0 0.0 0.0 0.00 0.00 0.00 90 1018.9
20260509230904 53 0 0.0 0.0 0.00 0.00 0.00 90 1018.8
20260509230004 53 0 0.0 0.0 0.00 0.00 0.00 90 1018.7
20260509225617 53 0 0.0 0.0 0.00 0.00 0.00 89 1018.7
20260509224503 53 0 0.0 0.0 0.00 0.00 0.00 89 1018.7
20260509223603 53 0 0.0 0.0 0.00 0.00 0.00 89 1018.6
20260509222703 53 0 0.0 0.0 0.00 0.00 0.00 89 1018.6
20260509221804 53 0 0.0 0.0 0.00 0.00 0.00 88 1018.6
20260509220903 54 0 0.0 0.0 0.00 0.00 0.00 88 1018.6
20260509220003 54 0 0.0 0.0 0.00 0.00 0.00 88 1018.6
20260509215403 54 0 0.0 0.0 0.00 0.00 0.00 88 1018.5
20260509214503 54 0 0.0 0.0 0.00 0.00 0.00 87 1018.7
20260509213603 54 0 0.0 0.0 0.00 0.00 0.00 87 1018.5
20260509212704 54 0 0.0 0.0 0.00 0.00 0.00 86 1018.6
20260509211803 54 0 0.0 0.0 0.00 0.00 0.00 86 1018.5
20260509210903 54 0 0.0 0.0 0.00 0.00 0.00 85 1018.6
20260509210003 54 0 0.0 0.0 0.00 0.00 0.00 85 1018.8
20260509205616 54 0 0.0 0.0 0.00 0.00 0.00 85 1018.7
20260509204504 54 0 0.0 0.0 0.00 0.00 0.00 85 1018.5
20260509203603 54 0 0.0 0.0 0.00 0.00 0.00 85 1018.7
20260509202705 54 0 0.0 0.0 0.00 0.00 0.00 85 1018.6
20260509201804 54 0 0.0 0.0 0.00 0.00 0.00 85 1018.8
20260509200903 54 0 0.0 0.0 0.00 0.00 0.00 85 1018.7
20260509200003 55 0 0.0 0.0 0.00 0.00 0.00 85 1018.5
20260509195618 55 0 0.0 0.0 0.00 0.00 0.00 85 1018.6
20260509194503 55 263 0.0 1.0 0.00 0.00 0.00 85 1018.4
20260509193604 55 263 0.0 1.0 0.00 0.00 0.00 84 1018.2
20260509192703 55 87 0.0 1.0 0.00 0.00 0.00 84 1018.3
20260509192018 55 0 0.0 0.0 0.00 0.00 0.00 84 1018.1
20260509190903 55 268 0.0 1.0 0.00 0.00 0.00 84 1018.1
20260509190005 56 88 0.0 1.0 0.00 0.00 0.00 83 1018.0
20260509185617 56 87 0.0 1.0 0.00 0.00 0.00 83 1018.1
20260509184503 56 94 0.0 1.0 0.00 0.00 0.00 83 1018.0
20260509183606 56 0 0.0 0.0 0.00 0.00 0.00 83 1018.1
20260509182703 56 0 0.0 0.0 0.00 0.00 0.00 83 1018.1